Time,TemperatureF,DewpointF,PressureIn,WindDirection,WindDirectionDegrees,WindSpeedMPH,WindSpeedGustMPH,Humidity,HourlyPrecipIn,Conditions,Clouds,dailyrainin,SoftwareType,DateUTC
2013-05-03 00:01:00,35.1,26.7,30.45,North,360,4.0,11.0,71,0.00,,---,0.00,VWS V14.00,2013-05-03 05:01:00,
2013-05-03 00:06:00,34.8,26.4,30.44,North,355,3.0,11.0,71,0.00,,---,0.00,VWS V14.00,2013-05-03 05:06:00,
2013-05-03 00:11:00,34.6,26.2,30.44,North,5,2.0,11.0,71,0.00,,---,0.00,VWS V14.00,2013-05-03 05:11:00,
2013-05-03 00:16:00,34.4,26.0,30.44,North,360,4.0,11.0,71,0.00,,---,0.00,VWS V14.00,2013-05-03 05:16:00,
2013-05-03 00:21:00,34.3,25.9,30.44,North,9,4.0,11.0,71,0.00,,---,0.00,VWS V14.00,2013-05-03 05:21:00,
2013-05-03 00:26:00,34.2,26.1,30.44,North,11,3.0,11.0,72,0.00,,---,0.00,VWS V14.00,2013-05-03 05:26:00,
2013-05-03 00:31:00,34.2,26.1,30.44,North,10,3.0,7.0,72,0.00,,---,0.00,VWS V14.00,2013-05-03 05:31:00,
2013-05-03 00:36:00,34.2,26.1,30.44,NNE,12,5.0,7.0,72,0.00,,---,0.00,VWS V14.00,2013-05-03 05:36:00,
2013-05-03 00:41:00,34.2,26.1,30.44,North,5,5.0,7.0,72,0.00,,---,0.00,VWS V14.00,2013-05-03 05:41:00,
2013-05-03 00:46:00,34.2,26.1,30.44,North,5,3.0,10.0,72,0.00,,---,0.00,VWS V14.00,2013-05-03 05:46:00,
2013-05-03 00:51:00,34.2,26.1,30.44,NNE,12,3.0,10.0,72,0.00,,---,0.00,VWS V14.00,2013-05-03 05:51:00,
2013-05-03 00:56:00,34.3,26.2,30.44,NNE,17,4.0,10.0,72,0.00,,---,0.00,VWS V14.00,2013-05-03 05:56:00,
2013-05-03 01:01:00,34.3,25.9,30.43,NNE,28,15.0,19.0,71,0.00,,---,0.00,VWS V14.00,2013-05-03 06:01:00,
2013-05-03 01:06:00,34.4,26.0,30.43,North,5,6.0,19.0,71,0.00,,---,0.00,VWS V14.00,2013-05-03 06:06:00,
2013-05-03 01:11:00,34.4,26.0,30.43,NNE,26,11.0,19.0,71,0.00,,---,0.00,VWS V14.00,2013-05-03 06:11:00,
2013-05-03 01:16:00,34.4,25.6,30.43,North,10,13.0,20.0,70,0.00,,---,0.00,VWS V14.00,2013-05-03 06:16:00,
2013-05-03 01:21:00,34.4,25.6,30.43,NNE,24,15.0,20.0,70,0.00,,---,0.00,VWS V14.00,2013-05-03 06:21:00,
2013-05-03 01:26:00,34.3,25.9,30.42,NNE,17,10.0,20.0,71,0.00,,---,0.00,VWS V14.00,2013-05-03 06:26:00,
2013-05-03 01:31:00,34.3,25.9,30.42,North,11,12.0,14.0,71,0.00,,---,0.00,VWS V14.00,2013-05-03 06:31:00,
2013-05-03 01:36:00,34.3,25.9,30.42,NNE,30,6.0,16.0,71,0.00,,---,0.00,VWS V14.00,2013-05-03 06:36:00,
2013-05-03 01:41:00,34.2,25.8,30.42,NNE,22,9.0,16.0,71,0.00,,---,0.00,VWS V14.00,2013-05-03 06:41:00,
2013-05-03 01:46:00,34.2,25.8,30.42,NNE,19,11.0,16.0,71,0.00,,---,0.00,VWS V14.00,2013-05-03 06:46:00,
2013-05-03 01:51:00,34.1,25.7,30.42,NNE,22,10.0,18.0,71,0.00,,---,0.00,VWS V14.00,2013-05-03 06:51:00,
2013-05-03 01:56:00,34.0,25.6,30.42,NNE,24,6.0,18.0,71,0.00,,---,0.00,VWS V14.00,2013-05-03 06:56:00,
2013-05-03 02:01:00,33.9,25.5,30.42,NE,39,10.0,18.0,71,0.00,,---,0.00,VWS V14.00,2013-05-03 07:01:00,
2013-05-03 02:06:00,33.7,25.6,30.41,NE,34,11.0,18.0,72,0.00,,---,0.00,VWS V14.00,2013-05-03 07:06:00,
2013-05-03 02:11:00,33.6,25.5,30.40,NNE,31,12.0,18.0,72,0.00,,---,0.00,VWS V14.00,2013-05-03 07:11:00,
2013-05-03 02:16:00,33.5,25.5,30.40,NNE,26,9.0,18.0,72,0.00,,---,0.00,VWS V14.00,2013-05-03 07:16:00,
2013-05-03 02:21:00,33.3,25.3,30.40,NNE,26,11.0,18.0,72,0.00,,---,0.00,VWS V14.00,2013-05-03 07:21:00,
2013-05-03 02:26:00,33.3,25.3,30.40,North,5,13.0,18.0,72,0.00,,---,0.00,VWS V14.00,2013-05-03 07:26:00,
2013-05-03 02:31:00,33.2,25.5,30.40,NNE,13,6.0,14.0,73,0.00,,---,0.00,VWS V14.00,2013-05-03 07:31:00,
2013-05-03 02:36:00,33.0,25.3,30.40,NNE,24,5.0,14.0,73,0.00,,---,0.00,VWS V14.00,2013-05-03 07:36:00,
2013-05-03 02:41:00,33.0,25.3,30.40,NNE,26,9.0,15.0,73,0.00,,---,0.00,VWS V14.00,2013-05-03 07:41:00,
2013-05-03 02:46:00,32.8,25.4,30.40,NNE,32,13.0,15.0,74,0.00,,---,0.00,VWS V14.00,2013-05-03 07:46:00,
2013-05-03 02:51:00,32.8,25.4,30.40,NNE,17,9.0,15.0,74,0.00,,---,0.00,VWS V14.00,2013-05-03 07:51:00,
2013-05-03 02:56:00,32.7,25.3,30.40,NNE,28,9.0,15.0,74,0.00,,---,0.00,VWS V14.00,2013-05-03 07:56:00,
2013-05-03 03:01:00,32.6,25.2,30.40,NNE,15,9.0,17.0,74,0.00,,---,0.00,VWS V14.00,2013-05-03 08:01:00,
2013-05-03 03:06:00,32.6,25.2,30.39,NNE,26,10.0,17.0,74,0.00,,---,0.00,VWS V14.00,2013-05-03 08:06:00,
2013-05-03 03:11:00,32.4,25.4,30.40,NNE,28,4.0,17.0,75,0.00,,---,0.00,VWS V14.00,2013-05-03 08:11:00,
2013-05-03 03:16:00,32.3,25.3,30.40,NNE,32,11.0,17.0,75,0.00,,---,0.00,VWS V14.00,2013-05-03 08:16:00,
2013-05-03 03:21:00,32.2,25.2,30.39,NNE,18,6.0,17.0,75,0.00,,---,0.00,VWS V14.00,2013-05-03 08:21:00,
2013-05-03 03:26:00,32.1,25.4,30.39,NNE,26,11.0,17.0,76,0.00,,---,0.00,VWS V14.00,2013-05-03 08:26:00,
2013-05-03 03:31:00,32.1,25.4,30.39,NNE,22,8.0,13.0,76,0.00,,---,0.00,VWS V14.00,2013-05-03 08:31:00,
2013-05-03 03:36:00,32.1,25.4,30.39,NNE,19,5.0,13.0,76,0.00,,---,0.00,VWS V14.00,2013-05-03 08:36:00,
2013-05-03 03:41:00,32.0,25.3,30.39,NNE,32,7.0,13.0,76,0.00,,---,0.00,VWS V14.00,2013-05-03 08:41:00,
2013-05-03 03:46:00,31.9,25.2,30.38,NNE,26,7.0,13.0,76,0.00,,---,0.00,VWS V14.00,2013-05-03 08:46:00,
2013-05-03 03:51:00,31.8,25.1,30.38,NNE,25,11.0,13.0,76,0.00,,---,0.00,VWS V14.00,2013-05-03 08:51:00,
2013-05-03 03:56:00,31.7,25.3,30.38,NNE,20,9.0,13.0,77,0.00,,---,0.00,VWS V14.00,2013-05-03 08:56:00,
2013-05-03 04:01:00,31.7,25.3,30.38,NNE,27,9.0,13.0,77,0.00,,---,0.00,VWS V14.00,2013-05-03 09:01:00,
2013-05-03 04:06:00,31.6,25.2,30.38,NNE,22,5.0,13.0,77,0.00,,---,0.00,VWS V14.00,2013-05-03 09:06:00,
2013-05-03 04:11:00,31.5,25.1,30.38,NNE,16,6.0,13.0,77,0.00,,---,0.00,VWS V14.00,2013-05-03 09:11:00,
2013-05-03 04:16:00,31.5,25.4,30.37,NNE,23,6.0,13.0,78,0.00,,---,0.00,VWS V14.00,2013-05-03 09:16:00,
2013-05-03 04:21:00,31.5,25.1,30.37,NNE,18,6.0,13.0,77,0.00,,---,0.00,VWS V14.00,2013-05-03 09:21:00,
2013-05-03 04:26:00,31.5,25.4,30.37,NNE,18,7.0,13.0,78,0.00,,---,0.00,VWS V14.00,2013-05-03 09:26:00,
2013-05-03 04:31:00,31.5,25.4,30.37,NNE,26,7.0,11.0,78,0.00,,---,0.00,VWS V14.00,2013-05-03 09:31:00,
2013-05-03 04:36:00,31.5,25.4,30.37,NNE,21,7.0,12.0,78,0.00,,---,0.00,VWS V14.00,2013-05-03 09:36:00,
2013-05-03 04:41:00,31.5,25.4,30.37,NNE,17,5.0,12.0,78,0.00,,---,0.00,VWS V14.00,2013-05-03 09:41:00,
2013-05-03 04:46:00,31.5,25.4,30.38,NNE,19,5.0,12.0,78,0.00,,---,0.00,VWS V14.00,2013-05-03 09:46:00,
2013-05-03 04:51:00,31.4,25.4,30.38,North,5,6.0,12.0,78,0.00,,---,0.00,VWS V14.00,2013-05-03 09:51:00,
2013-05-03 04:56:00,31.4,25.4,30.38,North,9,3.0,12.0,78,0.00,,---,0.00,VWS V14.00,2013-05-03 09:56:00,
2013-05-03 05:01:00,31.4,25.4,30.38,NNE,18,4.0,7.0,78,0.00,,---,0.00,VWS V14.00,2013-05-03 10:01:00,
2013-05-03 05:06:00,31.3,25.2,30.37,NNE,17,6.0,7.0,78,0.00,,---,0.00,VWS V14.00,2013-05-03 10:06:00,
2013-05-03 05:11:00,31.2,25.1,30.38,NNE,15,7.0,10.0,78,0.00,,---,0.00,VWS V14.00,2013-05-03 10:11:00,
2013-05-03 05:16:00,31.2,25.5,30.38,North,360,9.0,10.0,79,0.00,,---,0.00,VWS V14.00,2013-05-03 10:16:00,
2013-05-03 05:21:00,31.3,25.2,30.37,NNE,14,5.0,10.0,78,0.00,,---,0.00,VWS V14.00,2013-05-03 10:21:00,
2013-05-03 05:26:00,31.4,25.4,30.37,NNE,25,5.0,10.0,78,0.00,,---,0.00,VWS V14.00,2013-05-03 10:26:00,
2013-05-03 05:31:00,31.4,25.4,30.37,NNE,24,4.0,11.0,78,0.00,,---,0.00,VWS V14.00,2013-05-03 10:31:00,
2013-05-03 05:36:00,31.4,25.4,30.36,NNE,14,4.0,12.0,78,0.00,,---,0.00,VWS V14.00,2013-05-03 10:36:00,
2013-05-03 05:41:00,31.4,25.4,30.36,NNE,19,9.0,12.0,78,0.00,,---,0.00,VWS V14.00,2013-05-03 10:41:00,
2013-05-03 05:46:00,31.3,25.6,30.37,North,5,3.0,12.0,79,0.00,,---,0.00,VWS V14.00,2013-05-03 10:46:00,
2013-05-03 05:51:00,31.4,25.4,30.37,NNE,17,3.0,12.0,78,0.00,,---,0.00,VWS V14.00,2013-05-03 10:51:00,
2013-05-03 05:56:00,31.4,25.4,30.36,NNE,20,6.0,12.0,78,0.00,,---,0.00,VWS V14.00,2013-05-03 10:56:00,
2013-05-03 06:01:00,31.3,25.2,30.36,North,360,8.0,11.0,78,0.00,,---,0.00,VWS V14.00,2013-05-03 11:01:00,
2013-05-03 06:06:00,31.3,25.2,30.36,NNE,12,5.0,11.0,78,0.00,,---,0.00,VWS V14.00,2013-05-03 11:06:00,
2013-05-03 06:11:00,31.3,25.2,30.36,North,5,6.0,12.0,78,0.00,,---,0.00,VWS V14.00,2013-05-03 11:11:00,
2013-05-03 06:16:00,31.3,25.2,30.35,NNE,15,5.0,12.0,78,0.00,,---,0.00,VWS V14.00,2013-05-03 11:16:00,
2013-05-03 06:21:00,31.3,25.6,30.35,NNE,17,8.0,12.0,79,0.00,,---,0.00,VWS V14.00,2013-05-03 11:21:00,
2013-05-03 06:26:00,31.4,25.6,30.35,NNE,19,9.0,12.0,79,0.00,,---,0.00,VWS V14.00,2013-05-03 11:26:00,
2013-05-03 06:31:00,31.4,25.6,30.35,NNE,17,6.0,11.0,79,0.00,,---,0.00,VWS V14.00,2013-05-03 11:31:00,
2013-05-03 06:36:00,31.5,25.4,30.35,North,5,5.0,13.0,78,0.00,,---,0.00,VWS V14.00,2013-05-03 11:36:00,
2013-05-03 06:41:00,31.5,25.4,30.35,North,9,9.0,13.0,78,0.00,,---,0.00,VWS V14.00,2013-05-03 11:41:00,
2013-05-03 06:46:00,31.7,25.6,30.35,NNE,22,8.0,15.0,78,0.00,,---,0.00,VWS V14.00,2013-05-03 11:46:00,
2013-05-03 06:51:00,31.8,25.4,30.35,North,5,12.0,15.0,77,0.00,,---,0.00,VWS V14.00,2013-05-03 11:51:00,
2013-05-03 06:56:00,31.9,25.8,30.35,NNE,18,16.0,16.0,78,0.00,,---,0.00,VWS V14.00,2013-05-03 11:56:00,
2013-05-03 07:01:00,32.0,25.6,30.35,North,10,11.0,16.0,77,0.00,,---,0.00,VWS V14.00,2013-05-03 12:01:00,
2013-05-03 07:06:00,32.0,25.6,30.35,NNE,30,9.0,16.0,77,0.00,,---,0.00,VWS V14.00,2013-05-03 12:06:00,
2013-05-03 07:11:00,32.1,25.7,30.35,NNE,30,9.0,16.0,77,0.00,,---,0.00,VWS V14.00,2013-05-03 12:11:00,
2013-05-03 07:16:00,32.2,25.8,30.35,North,5,13.0,16.0,77,0.00,,---,0.00,VWS V14.00,2013-05-03 12:16:00,
2013-05-03 07:21:00,32.3,25.6,30.35,NE,36,11.0,16.0,76,0.00,,---,0.00,VWS V14.00,2013-05-03 12:21:00,
2013-05-03 07:26:00,32.3,25.6,30.35,North,5,13.0,16.0,76,0.00,,---,0.00,VWS V14.00,2013-05-03 12:26:00,
2013-05-03 07:31:00,32.4,25.7,30.35,NNE,19,12.0,16.0,76,0.00,,---,0.00,VWS V14.00,2013-05-03 12:31:00,
2013-05-03 07:36:00,32.5,25.8,30.35,NNE,25,12.0,16.0,76,0.00,,---,0.00,VWS V14.00,2013-05-03 12:36:00,
2013-05-03 07:41:00,32.4,25.7,30.34,NNE,31,14.0,16.0,76,0.00,,---,0.00,VWS V14.00,2013-05-03 12:41:00,
2013-05-03 07:46:00,32.5,25.8,30.34,NE,35,11.0,17.0,76,0.00,,---,0.00,VWS V14.00,2013-05-03 12:46:00,
2013-05-03 07:51:00,32.5,25.8,30.34,NNE,24,12.0,17.0,76,0.00,,---,0.00,VWS V14.00,2013-05-03 12:51:00,
2013-05-03 07:56:00,32.6,25.6,30.34,NNE,22,13.0,17.0,75,0.00,,---,0.00,VWS V14.00,2013-05-03 12:56:00,
2013-05-03 08:01:00,32.6,25.6,30.34,NNE,15,9.0,18.0,75,0.00,,---,0.00,VWS V14.00,2013-05-03 13:01:00,
2013-05-03 08:06:00,32.7,26.0,30.34,NNE,25,11.0,18.0,76,0.00,,---,0.00,VWS V14.00,2013-05-03 13:06:00,
2013-05-03 08:11:00,32.8,25.8,30.34,North,11,16.0,18.0,75,0.00,,---,0.00,VWS V14.00,2013-05-03 13:11:00,
2013-05-03 08:16:00,32.9,26.2,30.34,NE,51,6.0,19.0,76,0.00,,---,0.00,VWS V14.00,2013-05-03 13:16:00,
2013-05-03 08:21:00,33.1,26.4,30.34,NNE,27,9.0,19.0,76,0.00,,---,0.00,VWS V14.00,2013-05-03 13:21:00,
2013-05-03 08:26:00,33.2,26.1,30.34,NNE,22,10.0,19.0,75,0.00,,---,0.00,VWS V14.00,2013-05-03 13:26:00,
2013-05-03 08:31:00,33.4,26.3,30.34,NNE,32,11.0,12.0,75,0.00,,---,0.00,VWS V14.00,2013-05-03 13:31:00,
2013-05-03 08:36:00,33.4,26.0,30.33,NNE,19,10.0,16.0,74,0.00,,---,0.00,VWS V14.00,2013-05-03 13:36:00,
2013-05-03 08:41:00,33.6,26.5,30.33,North,11,6.0,16.0,75,0.00,,---,0.00,VWS V14.00,2013-05-03 13:41:00,
2013-05-03 08:46:00,33.9,26.5,30.33,NNE,29,9.0,16.0,74,0.00,,---,0.00,VWS V14.00,2013-05-03 13:46:00,
2013-05-03 08:51:00,34.0,26.3,30.32,NNE,15,12.0,18.0,73,0.00,,---,0.00,VWS V14.00,2013-05-03 13:51:00,
2013-05-03 08:56:00,34.2,26.8,30.32,NNE,17,13.0,18.0,74,0.00,,---,0.00,VWS V14.00,2013-05-03 13:56:00,
2013-05-03 09:01:00,34.3,26.6,30.33,North,9,9.0,17.0,73,0.00,,---,0.00,VWS V14.00,2013-05-03 14:01:00,
2013-05-03 09:06:00,34.6,26.9,30.33,NNE,18,7.0,17.0,73,0.00,,---,0.00,VWS V14.00,2013-05-03 14:06:00,
2013-05-03 09:11:00,35.1,27.0,30.32,NNE,22,11.0,17.0,72,0.00,,---,0.00,VWS V14.00,2013-05-03 14:11:00,
2013-05-03 09:16:00,35.4,27.3,30.32,NNE,30,18.0,18.0,72,0.00,,---,0.00,VWS V14.00,2013-05-03 14:16:00,
2013-05-03 09:21:00,35.6,27.1,30.31,North,10,13.0,18.0,71,0.00,,---,0.00,VWS V14.00,2013-05-03 14:21:00,
2013-05-03 09:26:00,35.7,27.2,30.31,NNE,22,17.0,19.0,71,0.00,,---,0.00,VWS V14.00,2013-05-03 14:26:00,
2013-05-03 09:31:00,35.7,27.2,30.31,NNE,20,17.0,20.0,71,0.00,,---,0.00,VWS V14.00,2013-05-03 14:31:00,
2013-05-03 09:36:00,35.8,27.0,30.31,NNE,33,13.0,20.0,70,0.00,,---,0.00,VWS V14.00,2013-05-03 14:36:00,
2013-05-03 09:41:00,35.8,27.0,30.30,NE,38,11.0,20.0,70,0.00,,---,0.00,VWS V14.00,2013-05-03 14:41:00,
2013-05-03 09:46:00,36.1,27.3,30.30,North,5,12.0,20.0,70,0.00,,---,0.00,VWS V14.00,2013-05-03 14:46:00,
2013-05-03 09:51:00,36.6,27.4,30.30,NNE,24,7.0,20.0,69,0.00,,---,0.00,VWS V14.00,2013-05-03 14:51:00,
2013-05-03 09:55:00,36.9,27.0,30.30,NNE,25,17.0,20.0,67,0.00,,---,0.00,VWS V14.00,2013-05-03 14:55:00,
2013-05-03 10:00:00,37.3,27.4,30.30,North,9,11.0,19.0,67,0.00,,---,0.00,VWS V14.00,2013-05-03 15:00:00,
2013-05-03 10:05:00,37.3,27.4,30.30,NNE,15,13.0,19.0,67,0.00,,---,0.00,VWS V14.00,2013-05-03 15:05:00,
2013-05-03 10:10:00,37.5,27.5,30.30,North,9,14.0,19.0,67,0.00,,---,0.00,VWS V14.00,2013-05-03 15:10:00,
2013-05-03 10:15:00,37.3,26.6,30.30,NNE,12,16.0,19.0,65,0.00,,---,0.00,VWS V14.00,2013-05-03 15:15:00,
2013-05-03 10:20:00,37.3,26.6,30.30,North,5,12.0,19.0,65,0.00,,---,0.00,VWS V14.00,2013-05-03 15:20:00,
2013-05-03 10:25:00,37.3,26.6,30.30,North,5,10.0,19.0,65,0.00,,---,0.00,VWS V14.00,2013-05-03 15:25:00,
2013-05-03 10:30:00,37.5,26.8,30.30,North,5,10.0,18.0,65,0.00,,---,0.00,VWS V14.00,2013-05-03 15:30:00,
2013-05-03 10:35:00,37.6,26.5,30.30,NNE,13,10.0,18.0,64,0.00,,---,0.00,VWS V14.00,2013-05-03 15:35:00,
2013-05-03 10:40:00,37.8,27.1,30.30,NNE,15,4.0,18.0,65,0.00,,---,0.00,VWS V14.00,2013-05-03 15:40:00,
2013-05-03 10:45:00,38.0,26.9,30.30,North,5,11.0,18.0,64,0.00,,---,0.00,VWS V14.00,2013-05-03 15:45:00,
2013-05-03 10:50:00,37.9,26.8,30.29,NNE,22,12.0,18.0,64,0.00,,---,0.00,VWS V14.00,2013-05-03 15:50:00,
2013-05-03 10:55:00,37.9,27.6,30.29,NNW,343,12.0,18.0,66,0.00,,---,0.00,VWS V14.00,2013-05-03 15:55:00,
2013-05-03 11:00:00,37.8,27.5,30.29,NNW,343,12.0,18.0,66,0.00,,---,0.00,VWS V14.00,2013-05-03 16:00:00,
2013-05-03 11:05:00,38.1,27.8,30.29,NNE,17,10.0,18.0,66,0.00,,---,0.00,VWS V14.00,2013-05-03 16:05:00,
2013-05-03 11:10:00,38.3,27.2,30.29,North,360,14.0,19.0,64,0.00,,---,0.00,VWS V14.00,2013-05-03 16:10:00,
2013-05-03 11:15:00,38.3,27.2,30.28,North,360,10.0,19.0,64,0.00,,---,0.00,VWS V14.00,2013-05-03 16:15:00,
2013-05-03 11:20:00,38.4,27.3,30.28,NNW,346,12.0,19.0,64,0.00,,---,0.00,VWS V14.00,2013-05-03 16:20:00,
2013-05-03 11:25:00,38.8,27.7,30.28,NNE,26,13.0,19.0,64,0.00,,---,0.00,VWS V14.00,2013-05-03 16:25:00,
2013-05-03 11:30:00,39.0,27.9,30.28,NNE,13,14.0,15.0,64,0.00,,---,0.00,VWS V14.00,2013-05-03 16:30:00,
2013-05-03 11:35:00,39.4,28.2,30.28,NNE,32,14.0,18.0,64,0.00,,---,0.00,VWS V14.00,2013-05-03 16:35:00,
2013-05-03 11:40:00,39.7,27.8,30.28,North,360,14.0,19.0,62,0.00,,---,0.00,VWS V14.00,2013-05-03 16:40:00,
2013-05-03 11:45:00,40.1,28.1,30.27,North,355,18.0,19.0,62,0.00,,---,0.00,VWS V14.00,2013-05-03 16:45:00,
2013-05-03 11:50:00,40.4,27.2,30.27,NE,36,16.0,21.0,59,0.00,,---,0.00,VWS V14.00,2013-05-03 16:50:00,
2013-05-03 11:55:00,40.4,26.8,30.27,NNE,33,20.0,24.0,58,0.00,,---,0.00,VWS V14.00,2013-05-03 16:55:00,
2013-05-03 12:00:00,40.4,27.6,30.27,NNE,17,16.0,23.0,60,0.00,,---,0.00,VWS V14.00,2013-05-03 17:00:00,
2013-05-03 12:05:00,40.4,28.0,30.26,NE,47,17.0,23.0,61,0.00,,---,0.00,VWS V14.00,2013-05-03 17:05:00,
2013-05-03 12:10:00,40.6,27.8,30.26,NE,45,17.0,23.0,60,0.00,,---,0.00,VWS V14.00,2013-05-03 17:10:00,
2013-05-03 12:15:00,40.5,27.7,30.25,North,9,17.0,23.0,60,0.00,,---,0.00,VWS V14.00,2013-05-03 17:15:00,
2013-05-03 12:20:00,40.9,28.5,30.25,NNE,16,12.0,23.0,61,0.00,,---,0.00,VWS V14.00,2013-05-03 17:20:00,
2013-05-03 12:25:00,41.0,28.2,30.25,NE,36,17.0,23.0,60,0.00,,---,0.00,VWS V14.00,2013-05-03 17:25:00,
2013-05-03 12:30:00,41.1,28.3,30.25,NNE,13,13.0,17.0,60,0.00,,---,0.00,VWS V14.00,2013-05-03 17:30:00,
2013-05-03 12:35:00,41.2,28.4,30.24,NNE,27,18.0,21.0,60,0.00,,---,0.00,VWS V14.00,2013-05-03 17:35:00,
2013-05-03 12:40:00,41.0,28.6,30.24,NNE,21,16.0,23.0,61,0.00,,---,0.00,VWS V14.00,2013-05-03 17:40:00,
2013-05-03 12:45:00,41.4,29.8,30.23,NE,46,19.0,24.0,63,0.00,,---,0.00,VWS V14.00,2013-05-03 17:45:00,
2013-05-03 12:50:00,41.6,29.6,30.23,NNE,22,17.0,26.0,62,0.00,,---,0.00,VWS V14.00,2013-05-03 17:50:00,
2013-05-03 12:55:00,41.3,29.7,30.23,NE,48,12.0,26.0,63,0.00,,---,0.00,VWS V14.00,2013-05-03 17:55:00,
2013-05-03 13:00:00,41.7,30.0,30.23,ENE,61,21.0,26.0,63,0.00,,---,0.00,VWS V14.00,2013-05-03 18:00:00,
2013-05-03 13:05:00,41.5,30.2,30.22,NNE,30,21.0,26.0,64,0.00,,---,0.00,VWS V14.00,2013-05-03 18:05:00,
2013-05-03 13:10:00,42.0,30.7,30.22,NE,40,15.0,26.0,64,0.00,,---,0.00,VWS V14.00,2013-05-03 18:10:00,
2013-05-03 13:15:00,41.5,30.2,30.22,NNE,19,16.0,26.0,64,0.00,,---,0.00,VWS V14.00,2013-05-03 18:15:00,
2013-05-03 13:20:00,41.4,30.5,30.22,NNE,19,15.0,26.0,65,0.00,,---,0.00,VWS V14.00,2013-05-03 18:20:00,
2013-05-03 13:25:00,41.3,30.4,30.23,NE,43,15.0,28.0,65,0.00,,---,0.00,VWS V14.00,2013-05-03 18:25:00,
2013-05-03 13:30:00,41.3,30.8,30.22,NNE,25,15.0,21.0,66,0.00,,---,0.00,VWS V14.00,2013-05-03 18:30:00,
2013-05-03 13:35:00,41.5,31.4,30.22,NNE,33,15.0,21.0,67,0.00,,---,0.00,VWS V14.00,2013-05-03 18:35:00,
2013-05-03 13:40:00,41.7,30.8,30.22,NNE,20,15.0,24.0,65,0.00,,---,0.00,VWS V14.00,2013-05-03 18:40:00,
2013-05-03 13:45:00,42.2,31.7,30.21,NE,45,15.0,24.0,66,0.00,,---,0.00,VWS V14.00,2013-05-03 18:45:00,
2013-05-03 13:50:00,42.1,31.2,30.21,NE,43,17.0,24.0,65,0.00,,---,0.00,VWS V14.00,2013-05-03 18:50:00,
2013-05-03 13:55:00,42.5,31.6,30.21,NE,35,11.0,24.0,65,0.00,,---,0.00,VWS V14.00,2013-05-03 18:55:00,
2013-05-03 14:00:00,42.5,31.6,30.21,NE,45,14.0,23.0,65,0.00,,---,0.00,VWS V14.00,2013-05-03 19:00:00,
2013-05-03 14:05:00,42.3,31.4,30.21,NNE,28,21.0,23.0,65,0.00,,---,0.00,VWS V14.00,2013-05-03 19:05:00,
2013-05-03 14:10:00,41.8,31.3,30.21,NE,41,16.0,24.0,66,0.00,,---,0.00,VWS V14.00,2013-05-03 19:10:00,
2013-05-03 14:15:00,41.7,31.6,30.20,NE,52,17.0,24.0,67,0.00,,---,0.00,VWS V14.00,2013-05-03 19:15:00,
2013-05-03 14:20:00,41.6,31.5,30.21,NNE,30,21.0,25.0,67,0.00,,---,0.00,VWS V14.00,2013-05-03 19:20:00,
2013-05-03 14:25:00,41.3,31.2,30.21,NE,51,17.0,26.0,67,0.00,,---,0.00,VWS V14.00,2013-05-03 19:25:00,
2013-05-03 14:30:00,41.1,31.4,30.21,NE,34,22.0,26.0,68,0.00,,---,0.00,VWS V14.00,2013-05-03 19:30:00,
2013-05-03 14:35:00,41.0,31.3,30.21,NE,34,16.0,26.0,68,0.00,,---,0.00,VWS V14.00,2013-05-03 19:35:00,
2013-05-03 14:40:00,41.2,31.5,30.21,NNE,25,19.0,26.0,68,0.00,,---,0.00,VWS V14.00,2013-05-03 19:40:00,
2013-05-03 14:45:00,41.0,31.3,30.21,NE,42,14.0,26.0,68,0.00,,---,0.00,VWS V14.00,2013-05-03 19:45:00,
2013-05-03 14:50:00,41.0,31.3,30.21,NE,42,11.0,26.0,68,0.00,,---,0.00,VWS V14.00,2013-05-03 19:50:00,
2013-05-03 14:55:00,41.0,31.3,30.20,NE,36,17.0,26.0,68,0.00,,---,0.00,VWS V14.00,2013-05-03 19:55:00,
2013-05-03 15:00:00,41.0,31.3,30.20,NNE,31,23.0,23.0,68,0.00,,---,0.00,VWS V14.00,2013-05-03 20:00:00,
2013-05-03 15:05:00,41.1,31.4,30.20,NE,50,13.0,23.0,68,0.00,,---,0.00,VWS V14.00,2013-05-03 20:05:00,
2013-05-03 15:10:00,41.3,31.5,30.20,NE,37,16.0,24.0,68,0.00,,---,0.00,VWS V14.00,2013-05-03 20:10:00,
2013-05-03 15:15:00,41.7,31.6,30.20,NNE,30,18.0,24.0,67,0.00,,---,0.00,VWS V14.00,2013-05-03 20:15:00,
2013-05-03 15:20:00,41.7,31.6,30.20,NE,35,18.0,24.0,67,0.00,,---,0.00,VWS V14.00,2013-05-03 20:20:00,
2013-05-03 15:25:00,41.4,31.3,30.20,North,9,15.0,24.0,67,0.00,,---,0.00,VWS V14.00,2013-05-03 20:25:00,
2013-05-03 15:30:00,41.6,31.5,30.20,NNE,28,17.0,18.0,67,0.00,,---,0.00,VWS V14.00,2013-05-03 20:30:00,
2013-05-03 15:35:00,41.5,31.0,30.20,NNE,33,14.0,19.0,66,0.00,,---,0.00,VWS V14.00,2013-05-03 20:35:00,
2013-05-03 15:40:00,41.2,30.7,30.20,NNE,33,13.0,19.0,66,0.00,,---,0.00,VWS V14.00,2013-05-03 20:40:00,
2013-05-03 15:45:00,41.4,31.3,30.20,NNE,29,12.0,19.0,67,0.00,,---,0.00,VWS V14.00,2013-05-03 20:45:00,
2013-05-03 15:50:00,41.5,31.4,30.19,NE,38,13.0,21.0,67,0.00,,---,0.00,VWS V14.00,2013-05-03 20:50:00,
2013-05-03 15:55:00,41.5,31.0,30.19,NNE,28,13.0,21.0,66,0.00,,---,0.00,VWS V14.00,2013-05-03 20:55:00,
2013-05-03 16:00:00,41.7,31.6,30.19,NE,38,14.0,18.0,67,0.00,,---,0.00,VWS V14.00,2013-05-03 21:00:00,
2013-05-03 16:05:00,41.5,31.7,30.19,NE,48,18.0,21.0,68,0.00,,---,0.00,VWS V14.00,2013-05-03 21:05:00,
2013-05-03 16:10:00,41.4,31.6,30.19,ENE,57,11.0,21.0,68,0.00,,---,0.00,VWS V14.00,2013-05-03 21:10:00,
2013-05-03 16:15:00,41.4,32.4,30.19,NE,56,15.0,21.0,70,0.00,,---,0.00,VWS V14.00,2013-05-03 21:15:00,
2013-05-03 16:20:00,41.0,32.7,30.19,NE,49,12.0,21.0,72,0.00,,---,0.00,VWS V14.00,2013-05-03 21:20:00,
2013-05-03 16:25:00,41.0,32.7,30.19,ENE,57,13.0,21.0,72,0.00,,---,0.00,VWS V14.00,2013-05-03 21:25:00,
2013-05-03 16:30:00,41.0,33.0,30.19,ENE,63,10.0,16.0,73,0.00,,---,0.00,VWS V14.00,2013-05-03 21:30:00,
2013-05-03 16:35:00,40.8,32.8,30.19,ENE,67,12.0,17.0,73,0.00,,---,0.00,VWS V14.00,2013-05-03 21:35:00,
2013-05-03 16:40:00,40.8,33.2,30.18,NE,53,14.0,17.0,74,0.00,,---,0.00,VWS V14.00,2013-05-03 21:40:00,
2013-05-03 16:45:00,40.8,33.2,30.18,NE,51,13.0,18.0,74,0.00,,---,0.00,VWS V14.00,2013-05-03 21:45:00,
2013-05-03 16:50:00,40.8,33.5,30.18,ENE,67,9.0,18.0,75,0.00,,---,0.00,VWS V14.00,2013-05-03 21:50:00,
2013-05-03 16:55:00,40.8,33.5,30.18,NE,45,15.0,18.0,75,0.00,,---,0.00,VWS V14.00,2013-05-03 21:55:00,
2013-05-03 17:00:00,40.8,33.5,30.18,NE,56,17.0,17.0,75,0.00,,---,0.00,VWS V14.00,2013-05-03 22:00:00,
2013-05-03 17:05:00,40.7,33.7,30.18,NE,49,15.0,21.0,76,0.00,,---,0.00,VWS V14.00,2013-05-03 22:05:00,
2013-05-03 17:10:00,40.6,33.3,30.18,NE,47,18.0,21.0,75,0.00,,---,0.00,VWS V14.00,2013-05-03 22:10:00,
2013-05-03 17:15:00,40.4,33.5,30.18,ENE,59,15.0,21.0,76,0.00,,---,0.00,VWS V14.00,2013-05-03 22:15:00,
2013-05-03 17:20:00,40.4,33.5,30.18,NE,44,15.0,21.0,76,0.00,,---,0.00,VWS V14.00,2013-05-03 22:20:00,
2013-05-03 17:25:00,40.4,33.5,30.18,ENE,57,18.0,21.0,76,0.00,,---,0.00,VWS V14.00,2013-05-03 22:25:00,
2013-05-03 17:30:00,40.0,33.1,30.18,NE,42,14.0,20.0,76,0.00,,---,0.00,VWS V14.00,2013-05-03 22:30:00,
2013-05-03 17:35:00,40.0,33.4,30.18,ENE,76,13.0,20.0,77,0.00,,---,0.00,VWS V14.00,2013-05-03 22:35:00,
2013-05-03 17:40:00,39.9,33.3,30.18,NE,55,12.0,20.0,77,0.00,,---,0.00,VWS V14.00,2013-05-03 22:40:00,
2013-05-03 17:45:00,39.8,33.5,30.18,East,80,11.0,20.0,78,0.00,,---,0.00,VWS V14.00,2013-05-03 22:45:00,
2013-05-03 17:50:00,39.8,33.5,30.19,NE,56,16.0,20.0,78,0.00,,---,0.00,VWS V14.00,2013-05-03 22:50:00,
2013-05-03 17:55:00,39.7,33.4,30.18,NE,49,16.0,21.0,78,0.00,,---,0.00,VWS V14.00,2013-05-03 22:55:00,
2013-05-03 18:00:00,39.6,33.6,30.18,ENE,76,14.0,22.0,79,0.00,,---,0.00,VWS V14.00,2013-05-03 23:00:00,
2013-05-03 18:05:00,39.6,33.6,30.18,NE,55,19.0,22.0,79,0.00,,---,0.00,VWS V14.00,2013-05-03 23:05:00,
2013-05-03 18:10:00,39.5,33.5,30.18,NNE,31,16.0,22.0,79,0.00,,---,0.00,VWS V14.00,2013-05-03 23:10:00,
2013-05-03 18:15:00,39.5,33.8,30.18,ENE,59,11.0,22.0,80,0.00,,---,0.00,VWS V14.00,2013-05-03 23:15:00,
2013-05-03 18:20:00,39.4,33.8,30.18,ENE,59,17.0,22.0,80,0.00,,---,0.00,VWS V14.00,2013-05-03 23:20:00,
2013-05-03 18:25:00,39.2,33.9,30.18,NE,55,16.0,22.0,81,0.00,,---,0.00,VWS V14.00,2013-05-03 23:25:00,
2013-05-03 18:30:00,39.1,34.1,30.19,ENE,66,14.0,18.0,82,0.00,,---,0.00,VWS V14.00,2013-05-03 23:30:00,
2013-05-03 18:35:00,39.1,34.1,30.19,ENE,71,10.0,22.0,82,0.00,,---,0.00,VWS V14.00,2013-05-03 23:35:00,
2013-05-03 18:40:00,39.1,34.1,30.19,NE,43,16.0,22.0,82,0.00,,---,0.00,VWS V14.00,2013-05-03 23:40:00,
2013-05-03 18:45:00,38.8,34.1,30.19,ENE,57,15.0,23.0,83,0.00,,---,0.00,VWS V14.00,2013-05-03 23:45:00,
2013-05-03 18:50:00,38.7,34.3,30.19,NE,54,16.0,23.0,84,0.00,,---,0.00,VWS V14.00,2013-05-03 23:50:00,
2013-05-03 18:55:00,38.6,34.5,30.19,ENE,59,10.0,23.0,85,0.00,,---,0.00,VWS V14.00,2013-05-03 23:55:00,
2013-05-03 19:00:00,38.4,34.3,30.19,ENE,61,11.0,18.0,85,0.00,,---,0.00,VWS V14.00,2013-05-04 00:00:00,
2013-05-03 19:05:00,38.3,34.5,30.19,ENE,57,11.0,19.0,86,0.00,,---,0.00,VWS V14.00,2013-05-04 00:05:00,
2013-05-03 19:10:00,38.1,34.6,30.20,NE,55,10.0,19.0,87,0.00,,---,0.00,VWS V14.00,2013-05-04 00:10:00,
2013-05-03 19:15:00,38.0,35.0,30.20,ENE,62,8.0,19.0,89,0.00,,---,0.00,VWS V14.00,2013-05-04 00:15:00,
2013-05-03 19:20:00,37.9,35.0,30.20,NE,55,7.0,19.0,89,0.00,,---,0.00,VWS V14.00,2013-05-04 00:20:00,
2013-05-03 19:25:00,37.8,35.1,30.19,ENE,70,11.0,19.0,90,0.00,,---,0.00,VWS V14.00,2013-05-04 00:25:00,
2013-05-03 19:30:00,37.9,35.2,30.19,ENE,62,9.0,10.0,90,0.00,,---,0.00,VWS V14.00,2013-05-04 00:30:00,
2013-05-03 19:35:00,37.8,35.1,30.20,East,80,5.0,13.0,90,0.00,,---,0.01,VWS V14.00,2013-05-04 00:35:00,
2013-05-03 19:40:00,37.7,35.3,30.20,East,85,9.0,13.0,91,0.00,,---,0.01,VWS V14.00,2013-05-04 00:40:00,
2013-05-03 19:45:00,37.6,35.2,30.20,ENE,62,11.0,14.0,91,0.00,,---,0.01,VWS V14.00,2013-05-04 00:45:00,
2013-05-03 19:50:00,37.5,34.8,30.19,ENE,67,12.0,15.0,90,0.00,,---,0.01,VWS V14.00,2013-05-04 00:50:00,
2013-05-03 19:55:00,37.5,34.6,30.19,NE,49,11.0,18.0,89,0.00,,---,0.01,VWS V14.00,2013-05-04 00:55:00,
2013-05-03 20:00:00,37.4,34.5,30.18,NE,51,13.0,18.0,89,0.00,,---,0.01,VWS V14.00,2013-05-04 01:00:00,
2013-05-03 20:05:00,37.3,34.1,30.18,ENE,58,14.0,18.0,88,0.00,,---,0.01,VWS V14.00,2013-05-04 01:05:00,
2013-05-03 20:10:00,37.3,34.1,30.18,ENE,65,15.0,22.0,88,0.00,,---,0.01,VWS V14.00,2013-05-04 01:10:00,
2013-05-03 20:15:00,37.3,34.1,30.18,NE,52,9.0,22.0,88,0.00,,---,0.01,VWS V14.00,2013-05-04 01:15:00,
2013-05-03 20:20:00,37.2,34.0,30.18,ENE,66,15.0,22.0,88,0.00,,---,0.01,VWS V14.00,2013-05-04 01:20:00,
2013-05-03 20:25:00,37.2,34.0,30.18,NE,46,17.0,22.0,88,0.00,,---,0.01,VWS V14.00,2013-05-04 01:25:00,
2013-05-03 20:30:00,37.1,33.9,30.18,ENE,60,14.0,18.0,88,0.00,,---,0.01,VWS V14.00,2013-05-04 01:30:00,
2013-05-03 20:35:00,37.1,33.6,30.18,ENE,62,18.0,25.0,87,0.00,,---,0.01,VWS V14.00,2013-05-04 01:35:00,
2013-05-03 20:40:00,37.0,33.8,30.18,ENE,63,11.0,25.0,88,0.00,,---,0.01,VWS V14.00,2013-05-04 01:40:00,
2013-05-03 20:45:00,36.9,33.7,30.18,ENE,57,11.0,25.0,88,0.00,,---,0.01,VWS V14.00,2013-05-04 01:45:00,
2013-05-03 20:50:00,36.8,33.6,30.19,ENE,68,11.0,25.0,88,0.00,,---,0.01,VWS V14.00,2013-05-04 01:50:00,
2013-05-03 20:55:00,36.7,33.5,30.19,ENE,71,15.0,25.0,88,0.00,,---,0.01,VWS V14.00,2013-05-04 01:55:00,
2013-05-03 21:00:00,36.6,33.4,30.19,ENE,76,7.0,17.0,88,0.00,,---,0.01,VWS V14.00,2013-05-04 02:00:00,
2013-05-03 21:05:00,36.5,33.6,30.19,ENE,67,12.0,17.0,89,0.00,,---,0.01,VWS V14.00,2013-05-04 02:05:00,
2013-05-03 21:10:00,36.3,33.1,30.19,East,88,10.0,21.0,88,0.00,,---,0.01,VWS V14.00,2013-05-04 02:10:00,
2013-05-03 21:15:00,36.2,33.0,30.19,ENE,57,20.0,25.0,88,0.00,,---,0.01,VWS V14.00,2013-05-04 02:15:00,
2013-05-03 21:20:00,36.1,32.6,30.19,ENE,61,14.0,25.0,87,0.00,,---,0.01,VWS V14.00,2013-05-04 02:20:00,
2013-05-03 21:25:00,36.0,32.8,30.19,ENE,62,13.0,25.0,88,0.00,,---,0.01,VWS V14.00,2013-05-04 02:25:00,
2013-05-03 21:30:00,36.0,32.8,30.18,NE,53,18.0,19.0,88,0.00,,---,0.01,VWS V14.00,2013-05-04 02:30:00,
2013-05-03 21:35:00,35.9,32.7,30.18,NE,53,16.0,23.0,88,0.00,,---,0.01,VWS V14.00,2013-05-04 02:35:00,
2013-05-03 21:40:00,35.8,32.6,30.18,NE,55,11.0,23.0,88,0.00,,---,0.01,VWS V14.00,2013-05-04 02:40:00,
2013-05-03 21:45:00,35.7,32.5,30.18,NE,46,13.0,23.0,88,0.00,,---,0.01,VWS V14.00,2013-05-04 02:45:00,
2013-05-03 21:50:00,35.6,32.4,30.18,NE,54,16.0,23.0,88,0.00,,---,0.01,VWS V14.00,2013-05-04 02:50:00,
2013-05-03 21:55:00,35.5,32.3,30.19,NE,48,18.0,23.0,88,0.00,,---,0.01,VWS V14.00,2013-05-04 02:55:00,
2013-05-03 22:00:00,35.4,32.5,30.18,NE,43,16.0,20.0,89,0.00,,---,0.01,VWS V14.00,2013-05-04 03:00:00,
2013-05-03 22:05:00,35.3,32.4,30.19,NE,38,15.0,20.0,89,0.00,,---,0.01,VWS V14.00,2013-05-04 03:05:00,
2013-05-03 22:10:00,35.3,32.4,30.19,NE,46,17.0,20.0,89,0.00,,---,0.01,VWS V14.00,2013-05-04 03:10:00,
2013-05-03 22:15:00,35.2,32.3,30.19,ENE,69,14.0,20.0,89,0.00,,---,0.01,VWS V14.00,2013-05-04 03:15:00,
2013-05-03 22:20:00,35.3,32.4,30.19,NE,45,11.0,20.0,89,0.00,,---,0.01,VWS V14.00,2013-05-04 03:20:00,
2013-05-03 22:25:00,35.3,32.1,30.20,ENE,66,12.0,20.0,88,0.00,,---,0.01,VWS V14.00,2013-05-04 03:25:00,
2013-05-03 22:30:00,35.2,32.0,30.20,NE,40,15.0,17.0,88,0.00,,---,0.01,VWS V14.00,2013-05-04 03:30:00,
2013-05-03 22:35:00,35.2,32.0,30.21,NE,51,12.0,21.0,88,0.00,,---,0.01,VWS V14.00,2013-05-04 03:35:00,
2013-05-03 22:40:00,35.2,32.0,30.21,ENE,65,11.0,21.0,88,0.00,,---,0.01,VWS V14.00,2013-05-04 03:40:00,
2013-05-03 22:45:00,35.1,31.9,30.21,NE,56,5.0,21.0,88,0.00,,---,0.01,VWS V14.00,2013-05-04 03:45:00,
2013-05-03 22:50:00,35.1,31.9,30.21,NE,42,9.0,21.0,88,0.00,,---,0.01,VWS V14.00,2013-05-04 03:50:00,
2013-05-03 22:55:00,35.0,31.8,30.21,ENE,60,12.0,21.0,88,0.00,,---,0.01,VWS V14.00,2013-05-04 03:55:00,
2013-05-03 23:00:00,35.0,31.8,30.21,ENE,66,10.0,15.0,88,0.00,,---,0.01,VWS V14.00,2013-05-04 04:00:00,
2013-05-03 23:01:00,35.0,31.8,30.20,NE,42,10.0,15.0,88,0.00,,---,0.01,VWS V14.00,2013-05-04 04:01:00,
2013-05-03 23:06:00,34.9,31.7,30.20,NE,49,9.0,16.0,88,0.00,,---,0.01,VWS V14.00,2013-05-04 04:06:00,
2013-05-03 23:11:00,34.8,31.6,30.19,ENE,61,14.0,16.0,88,0.00,,---,0.01,VWS V14.00,2013-05-04 04:11:00,
2013-05-03 23:16:00,34.8,31.6,30.19,ENE,59,7.0,16.0,88,0.00,,---,0.01,VWS V14.00,2013-05-04 04:16:00,
2013-05-03 23:21:00,34.8,31.6,30.19,ENE,57,14.0,19.0,88,0.00,,---,0.01,VWS V14.00,2013-05-04 04:21:00,
2013-05-03 23:26:00,34.8,31.3,30.19,NE,46,13.0,19.0,87,0.00,,---,0.01,VWS V14.00,2013-05-04 04:26:00,
2013-05-03 23:31:00,34.8,31.6,30.19,NE,46,11.0,14.0,88,0.00,,---,0.01,VWS V14.00,2013-05-04 04:31:00,
2013-05-03 23:36:00,34.7,31.5,30.18,NE,40,11.0,16.0,88,0.00,,---,0.01,VWS V14.00,2013-05-04 04:36:00,
2013-05-03 23:41:00,34.6,31.7,30.18,NE,43,12.0,17.0,89,0.00,,---,0.01,VWS V14.00,2013-05-04 04:41:00,
2013-05-03 23:46:00,34.6,31.4,30.18,NE,51,11.0,19.0,88,0.00,,---,0.01,VWS V14.00,2013-05-04 04:46:00,
2013-05-03 23:51:00,34.6,31.4,30.18,NE,45,14.0,19.0,88,0.00,,---,0.01,VWS V14.00,2013-05-04 04:51:00,
2013-05-03 23:56:00,34.6,31.4,30.18,NE,53,11.0,19.0,88,0.00,,---,0.01,VWS V14.00,2013-05-04 04:56:00,